User: anonymous   Login
Location: Unspecified
(0.0000°N, 0.0000°E)
Time: 23:29:17
(UTC+00:00)
Language:

TBA - TO BE ASSIGNED - Orbit

View from above orbital plane
View from above orbital plane
View from above satellite
View from above satellite

Ground track
Ground track

The orbit is defined by the following mean orbital elements,

1 67621U          26145.47897807 +.00000000 +00000-0 +98000-3 0 00003
2 67621  43.0039  66.4358 0000412 283.4608  76.6197 15.27582703    09
Epoch (UTC): 25 May 2026 11:29:43
Eccentricity: 0.0000412
inclination: 43.0039°
perigee height: 483 km
apogee height: 483 km
right ascension of ascending node: 66.4358°
argument of perigee: 283.4608°
revolutions per day: 15.27582703
mean anomaly at epoch: 76.6197°

The dashed part of the orbit path shows where the satellite is in the earth's shadow,  

DLR